Time,TemperatureF,DewpointF,PressureIn,WindDirection,WindDirectionDegrees,WindSpeedMPH,WindSpeedGustMPH,Humidity,HourlyPrecipIn,Conditions,Clouds,dailyrainin,SoftwareType,DateUTC
2013-06-01 00:00:00,64.8,62.2,29.73,SSW,203,3.4,3.4,91,0.00,,,0.00,WUHU216HW,2013-06-01 05:00:00,
2013-06-01 00:05:00,64.8,62.2,29.72,SSW,203,2.7,3.4,91,0.00,,,0.00,WUHU216HW,2013-06-01 05:05:00,
2013-06-01 00:10:00,64.6,62.0,29.72,SSW,203,3.4,3.4,91,0.00,,,0.00,WUHU216HW,2013-06-01 05:10:00,
2013-06-01 00:15:00,64.6,62.0,29.71,SSW,203,2.9,3.4,91,0.00,,,0.00,WUHU216HW,2013-06-01 05:15:00,
2013-06-01 00:20:00,64.4,62.1,29.71,SSW,203,2.5,3.4,92,0.00,,,0.00,WUHU216HW,2013-06-01 05:20:00,
2013-06-01 00:25:00,64.4,62.1,29.71,SSW,203,2.2,2.9,92,0.00,,,0.00,WUHU216HW,2013-06-01 05:25:00,
2013-06-01 00:30:00,64.3,61.9,29.71,SSW,203,1.8,2.2,92,0.00,,,0.00,WUHU216HW,2013-06-01 05:30:00,
2013-06-01 00:35:00,64.1,61.7,29.71,SSW,203,1.8,2.2,92,0.00,,,0.00,WUHU216HW,2013-06-01 05:35:00,
2013-06-01 00:40:00,64.1,61.7,29.71,SSW,203,2.2,2.2,92,0.00,,,0.00,WUHU216HW,2013-06-01 05:40:00,
2013-06-01 00:45:00,64.1,61.7,29.71,SSW,203,1.6,2.2,92,0.00,,,0.00,WUHU216HW,2013-06-01 05:45:00,
2013-06-01 00:50:00,64.1,61.7,29.70,SSW,203,2.5,2.5,92,0.00,,,0.00,WUHU216HW,2013-06-01 05:50:00,
2013-06-01 00:55:00,64.1,61.7,29.69,SW,225,2.2,2.5,92,0.00,,,0.00,WUHU216HW,2013-06-01 05:55:00,
2013-06-01 01:00:00,63.9,61.6,29.69,SSW,203,2.2,2.5,92,0.00,,,0.00,WUHU216HW,2013-06-01 06:00:00,
2013-06-01 01:05:00,64.1,61.7,29.69,SSW,203,1.6,2.2,92,0.00,,,0.00,WUHU216HW,2013-06-01 06:05:00,
2013-06-01 01:10:00,64.1,61.7,29.70,SSW,203,0.4,2.2,92,0.00,,,0.00,WUHU216HW,2013-06-01 06:10:00,
2013-06-01 01:15:00,63.7,61.4,29.70,West,270,0.2,1.6,92,0.00,,,0.00,WUHU216HW,2013-06-01 06:15:00,
2013-06-01 01:20:00,63.5,61.2,29.69,West,270,0.0,0.2,92,0.00,,,0.00,WUHU216HW,2013-06-01 06:20:00,
2013-06-01 01:25:00,63.4,61.0,29.68,SSW,203,0.7,0.7,92,0.00,,,0.00,WUHU216HW,2013-06-01 06:25:00,
2013-06-01 01:30:00,63.2,60.8,29.68,SSW,203,0.0,0.7,92,0.00,,,0.00,WUHU216HW,2013-06-01 06:30:00,
2013-06-01 01:35:00,63.0,60.7,29.68,SSW,203,1.1,1.1,92,0.00,,,0.00,WUHU216HW,2013-06-01 06:35:00,
2013-06-01 01:40:00,62.8,60.5,29.68,SSW,203,1.1,1.1,92,0.00,,,0.00,WUHU216HW,2013-06-01 06:40:00,
2013-06-01 01:45:00,62.8,60.5,29.68,SSW,203,0.4,1.1,92,0.00,,,0.00,WUHU216HW,2013-06-01 06:45:00,
2013-06-01 01:50:00,63.2,60.8,29.68,WSW,248,0.0,1.1,92,0.00,,,0.00,WUHU216HW,2013-06-01 06:50:00,
2013-06-01 01:55:00,63.0,60.7,29.68,WSW,248,0.0,1.1,92,0.00,,,0.00,WUHU216HW,2013-06-01 06:55:00,
2013-06-01 02:00:00,62.6,60.3,29.68,WSW,248,0.0,0.0,92,0.00,,,0.00,WUHU216HW,2013-06-01 07:00:00,
2013-06-01 02:05:00,62.6,60.3,29.68,SW,225,0.0,0.0,92,0.00,,,0.00,WUHU216HW,2013-06-01 07:05:00,
2013-06-01 02:10:00,62.6,60.3,29.67,SW,225,0.0,0.0,92,0.00,,,0.00,WUHU216HW,2013-06-01 07:10:00,
2013-06-01 02:15:00,62.6,60.3,29.66,SSW,203,1.3,1.3,92,0.00,,,0.00,WUHU216HW,2013-06-01 07:15:00,
2013-06-01 02:20:00,62.8,60.9,29.66,SSW,203,1.6,1.6,93,0.00,,,0.00,WUHU216HW,2013-06-01 07:20:00,
2013-06-01 02:25:00,62.8,60.5,29.65,South,180,2.5,2.5,92,0.00,,,0.00,WUHU216HW,2013-06-01 07:25:00,
2013-06-01 02:30:00,62.6,60.3,29.66,South,180,2.7,2.7,92,0.00,,,0.00,WUHU216HW,2013-06-01 07:30:00,
2013-06-01 02:35:00,63.2,61.2,29.65,SSW,203,1.8,2.7,93,0.00,,,0.00,WUHU216HW,2013-06-01 07:35:00,
2013-06-01 02:40:00,63.2,61.2,29.65,South,180,7.6,7.6,93,0.00,,,0.00,WUHU216HW,2013-06-01 07:40:00,
2013-06-01 02:45:00,63.0,61.0,29.66,WSW,248,2.2,7.6,93,0.00,,,0.00,WUHU216HW,2013-06-01 07:45:00,
2013-06-01 02:50:00,63.2,61.2,29.66,SW,225,3.8,7.6,93,0.00,,,0.00,WUHU216HW,2013-06-01 07:50:00,
2013-06-01 02:55:00,63.0,61.0,29.66,SSW,203,2.7,3.8,93,0.00,,,0.00,WUHU216HW,2013-06-01 07:55:00,
2013-06-01 03:00:00,62.6,60.7,29.66,SSW,203,2.7,3.8,93,0.00,,,0.00,WUHU216HW,2013-06-01 08:00:00,
2013-06-01 03:05:00,62.6,60.7,29.66,SSW,203,3.4,3.4,93,0.00,,,0.00,WUHU216HW,2013-06-01 08:05:00,
2013-06-01 03:10:00,62.8,60.9,29.65,SSW,203,2.5,3.4,93,0.00,,,0.00,WUHU216HW,2013-06-01 08:10:00,
2013-06-01 03:15:00,63.0,61.0,29.65,SSW,203,3.1,3.4,93,0.00,,,0.00,WUHU216HW,2013-06-01 08:15:00,
2013-06-01 03:20:00,63.0,61.0,29.65,SSW,203,2.7,3.1,93,0.00,,,0.00,WUHU216HW,2013-06-01 08:20:00,
2013-06-01 03:25:00,63.0,61.0,29.66,SW,225,2.2,3.1,93,0.00,,,0.00,WUHU216HW,2013-06-01 08:25:00,
2013-06-01 03:30:00,63.0,61.0,29.66,SSW,203,3.6,3.6,93,0.00,,,0.00,WUHU216HW,2013-06-01 08:30:00,
2013-06-01 03:35:00,63.0,61.0,29.66,West,270,1.3,3.6,93,0.00,,,0.00,WUHU216HW,2013-06-01 08:35:00,
2013-06-01 03:40:00,63.0,61.0,29.66,SSW,203,2.2,3.6,93,0.00,,,0.00,WUHU216HW,2013-06-01 08:40:00,
2013-06-01 03:45:00,62.8,60.9,29.66,SW,225,2.0,2.2,93,0.00,,,0.00,WUHU216HW,2013-06-01 08:45:00,
2013-06-01 03:50:00,62.8,60.9,29.67,SW,225,1.1,2.2,93,0.00,,,0.00,WUHU216HW,2013-06-01 08:50:00,
2013-06-01 03:55:00,62.8,60.9,29.67,WSW,248,0.4,2.2,93,0.00,,,0.00,WUHU216HW,2013-06-01 08:55:00,
2013-06-01 04:00:00,62.6,60.7,29.67,NNW,338,0.0,1.1,93,0.00,,,0.00,WUHU216HW,2013-06-01 09:00:00,
2013-06-01 04:05:00,62.3,60.3,29.68,WSW,248,0.4,0.4,93,0.00,,,0.00,WUHU216HW,2013-06-01 09:05:00,
2013-06-01 04:10:00,62.3,60.3,29.68,SSW,203,0.0,0.4,93,0.00,,,0.00,WUHU216HW,2013-06-01 09:10:00,
2013-06-01 04:15:00,62.5,60.5,29.68,SSW,203,1.6,1.6,93,0.00,,,0.00,WUHU216HW,2013-06-01 09:15:00,
2013-06-01 04:20:00,62.8,60.9,29.68,SSW,203,3.6,4.0,93,0.00,,,0.00,WUHU216HW,2013-06-01 09:20:00,
2013-06-01 04:25:00,62.8,60.9,29.68,South,180,3.4,4.0,93,0.00,,,0.00,WUHU216HW,2013-06-01 09:25:00,
2013-06-01 04:30:00,62.6,60.7,29.68,WNW,293,1.6,3.6,93,0.00,,,0.00,WUHU216HW,2013-06-01 09:30:00,
2013-06-01 04:35:00,62.6,60.7,29.69,SW,225,2.0,3.8,93,0.00,,,0.00,WUHU216HW,2013-06-01 09:35:00,
2013-06-01 04:40:00,62.5,60.5,29.70,NNE,23,1.3,3.8,93,0.00,,,0.00,WUHU216HW,2013-06-01 09:40:00,
2013-06-01 04:45:00,62.3,60.3,29.69,NW,315,1.1,2.0,93,0.00,,,0.00,WUHU216HW,2013-06-01 09:45:00,
2013-06-01 04:50:00,62.5,60.5,29.69,South,180,1.8,1.8,93,0.00,,,0.00,WUHU216HW,2013-06-01 09:50:00,
2013-06-01 04:55:00,63.0,61.0,29.69,SW,225,4.0,4.0,93,0.01,,,0.01,WUHU216HW,2013-06-01 09:55:00,
2013-06-01 05:00:00,63.0,61.0,29.68,SSW,203,2.7,4.0,93,0.01,,,0.01,WUHU216HW,2013-06-01 10:00:00,
2013-06-01 05:05:00,63.2,61.2,29.68,SSW,203,1.8,4.0,93,0.01,,,0.01,WUHU216HW,2013-06-01 10:05:00,
2013-06-01 05:10:00,63.4,61.4,29.69,SW,225,1.8,2.7,93,0.01,,,0.01,WUHU216HW,2013-06-01 10:10:00,
2013-06-01 05:15:00,63.4,61.4,29.68,SSW,203,1.1,1.8,93,0.01,,,0.01,WUHU216HW,2013-06-01 10:15:00,
2013-06-01 05:20:00,63.4,61.4,29.67,SSW,203,1.8,1.8,93,0.01,,,0.01,WUHU216HW,2013-06-01 10:20:00,
2013-06-01 05:25:00,63.4,61.4,29.67,SW,225,1.3,1.8,93,0.01,,,0.01,WUHU216HW,2013-06-01 10:25:00,
2013-06-01 05:30:00,63.4,61.4,29.67,SW,225,1.3,1.3,93,0.01,,,0.01,WUHU216HW,2013-06-01 10:30:00,
2013-06-01 05:35:00,63.4,61.4,29.67,SW,225,1.3,1.3,93,0.01,,,0.01,WUHU216HW,2013-06-01 10:35:00,
2013-06-01 05:56:00,63.0,61.0,29.68,West,270,0.4,0.4,93,0.00,,,0.01,WUHU216HW,2013-06-01 10:56:00,
2013-06-01 06:01:00,62.6,60.7,29.69,WSW,248,0.0,0.4,93,0.00,,,0.01,WUHU216HW,2013-06-01 11:01:00,
2013-06-01 06:06:00,62.5,60.5,29.69,NW,315,0.7,0.7,93,0.00,,,0.01,WUHU216HW,2013-06-01 11:06:00,
2013-06-01 06:11:00,62.3,60.3,29.69,NW,315,0.4,0.7,93,0.00,,,0.01,WUHU216HW,2013-06-01 11:11:00,
2013-06-01 06:16:00,62.5,60.5,29.68,SSW,203,0.4,0.7,93,0.00,,,0.01,WUHU216HW,2013-06-01 11:16:00,
2013-06-01 06:21:00,62.5,60.5,29.69,SW,225,3.1,3.1,93,0.00,,,0.01,WUHU216HW,2013-06-01 11:21:00,
2013-06-01 06:26:00,62.6,60.7,29.69,West,270,1.1,3.1,93,0.00,,,0.01,WUHU216HW,2013-06-01 11:26:00,
2013-06-01 06:31:00,62.6,60.7,29.68,NW,315,0.4,3.1,93,0.00,,,0.01,WUHU216HW,2013-06-01 11:31:00,
2013-06-01 06:36:00,62.3,60.3,29.69,NW,315,0.0,1.1,93,0.00,,,0.01,WUHU216HW,2013-06-01 11:36:00,
2013-06-01 06:41:00,62.3,60.3,29.69,WSW,248,0.4,0.4,93,0.00,,,0.01,WUHU216HW,2013-06-01 11:41:00,
2013-06-01 06:46:00,62.3,60.3,29.69,South,180,0.2,0.4,93,0.00,,,0.01,WUHU216HW,2013-06-01 11:46:00,
2013-06-01 06:51:00,62.3,60.3,29.70,SSW,203,0.7,0.7,93,0.00,,,0.01,WUHU216HW,2013-06-01 11:51:00,
2013-06-01 06:56:00,62.5,60.5,29.70,SSW,203,0.4,0.7,93,0.00,,,0.01,WUHU216HW,2013-06-01 11:56:00,
2013-06-01 07:01:00,62.6,60.7,29.70,SW,225,0.0,0.4,93,0.00,,,0.01,WUHU216HW,2013-06-01 12:01:00,
2013-06-01 07:06:00,62.5,60.5,29.71,SW,225,0.0,0.0,93,0.00,,,0.01,WUHU216HW,2013-06-01 12:06:00,
2013-06-01 07:11:00,62.5,60.5,29.71,SW,225,0.0,0.0,93,0.00,,,0.01,WUHU216HW,2013-06-01 12:11:00,
2013-06-01 07:16:00,62.5,60.5,29.72,NNW,338,4.0,4.0,93,0.00,,,0.01,WUHU216HW,2013-06-01 12:16:00,
2013-06-01 07:21:00,62.6,60.7,29.72,NW,315,2.5,4.0,93,0.00,,,0.01,WUHU216HW,2013-06-01 12:21:00,
2013-06-01 07:26:00,62.6,60.0,29.72,North,0,2.7,2.7,91,0.00,,,0.01,WUHU216HW,2013-06-01 12:26:00,
2013-06-01 07:31:00,62.8,59.9,29.73,NNW,338,1.1,2.7,90,0.00,,,0.01,WUHU216HW,2013-06-01 12:31:00,
2013-06-01 07:36:00,62.6,58.1,29.73,NW,315,1.8,2.7,85,0.00,,,0.01,WUHU216HW,2013-06-01 12:36:00,
2013-06-01 07:41:00,62.6,57.3,29.73,NW,315,2.5,2.5,83,0.00,,,0.01,WUHU216HW,2013-06-01 12:41:00,
2013-06-01 07:46:00,62.6,57.3,29.74,North,0,0.0,2.5,83,0.00,,,0.01,WUHU216HW,2013-06-01 12:46:00,
2013-06-01 07:51:00,62.6,57.1,29.74,NW,315,0.0,2.5,82,0.00,,,0.01,WUHU216HW,2013-06-01 12:51:00,
2013-06-01 07:56:00,62.8,56.5,29.74,West,270,0.7,0.7,80,0.00,,,0.01,WUHU216HW,2013-06-01 12:56:00,
2013-06-01 08:01:00,62.8,56.2,29.74,WSW,248,0.7,0.7,79,0.00,,,0.01,WUHU216HW,2013-06-01 13:01:00,
2013-06-01 08:06:00,63.0,57.7,29.73,NW,315,0.2,0.7,83,0.00,,,0.01,WUHU216HW,2013-06-01 13:06:00,
2013-06-01 08:11:00,62.8,56.9,29.74,WSW,248,0.7,0.7,81,0.00,,,0.01,WUHU216HW,2013-06-01 13:11:00,
2013-06-01 08:16:00,63.0,56.7,29.74,West,270,0.0,0.7,80,0.00,,,0.01,WUHU216HW,2013-06-01 13:16:00,
2013-06-01 08:21:00,63.2,55.4,29.74,NNE,23,1.8,1.8,76,0.00,,,0.01,WUHU216HW,2013-06-01 13:21:00,
2013-06-01 08:26:00,63.2,55.8,29.74,NNW,338,0.9,1.8,77,0.00,,,0.01,WUHU216HW,2013-06-01 13:26:00,
2013-06-01 08:31:00,63.2,55.8,29.74,SW,225,0.0,1.8,77,0.00,,,0.01,WUHU216HW,2013-06-01 13:31:00,
2013-06-01 08:36:00,64.1,57.8,29.75,WNW,293,0.0,0.9,80,0.00,,,0.01,WUHU216HW,2013-06-01 13:36:00,
2013-06-01 08:41:00,64.4,57.4,29.76,West,270,0.4,0.4,78,0.00,,,0.01,WUHU216HW,2013-06-01 13:41:00,
2013-06-01 08:46:00,65.0,58.0,29.76,NNW,338,1.3,1.3,78,0.00,,,0.01,WUHU216HW,2013-06-01 13:46:00,
2013-06-01 08:51:00,64.8,55.3,29.75,North,0,2.9,2.9,71,0.00,,,0.01,WUHU216HW,2013-06-01 13:51:00,
2013-06-01 08:56:00,65.2,55.5,29.76,NE,45,0.4,2.9,71,0.00,,,0.01,WUHU216HW,2013-06-01 13:56:00,
2013-06-01 09:01:00,65.7,56.4,29.76,North,0,2.0,2.9,72,0.00,,,0.01,WUHU216HW,2013-06-01 14:01:00,
2013-06-01 09:06:00,65.7,55.7,29.76,NNW,338,0.4,2.0,70,0.00,,,0.01,WUHU216HW,2013-06-01 14:06:00,
2013-06-01 09:11:00,66.8,56.7,29.75,NW,315,1.8,2.0,70,0.00,,,0.01,WUHU216HW,2013-06-01 14:11:00,
2013-06-01 09:16:00,67.0,56.1,29.75,North,0,2.2,2.2,68,0.00,,,0.01,WUHU216HW,2013-06-01 14:16:00,
2013-06-01 09:21:00,67.1,55.8,29.75,SW,225,1.6,2.2,67,0.00,,,0.01,WUHU216HW,2013-06-01 14:21:00,
2013-06-01 09:26:00,67.0,54.8,29.75,WNW,293,1.6,2.2,65,0.00,,,0.01,WUHU216HW,2013-06-01 14:26:00,
2013-06-01 09:31:00,67.0,54.8,29.76,West,270,1.6,1.6,65,0.00,,,0.01,WUHU216HW,2013-06-01 14:31:00,
2013-06-01 09:36:00,67.3,55.5,29.76,SSW,203,0.4,1.6,66,0.00,,,0.01,WUHU216HW,2013-06-01 14:36:00,
2013-06-01 09:41:00,67.1,54.1,29.76,NNW,338,2.0,3.4,63,0.00,,,0.01,WUHU216HW,2013-06-01 14:41:00,
2013-06-01 09:46:00,67.3,54.7,29.76,WSW,248,1.1,3.4,64,0.00,,,0.01,WUHU216HW,2013-06-01 14:46:00,
2013-06-01 09:51:00,67.9,54.4,29.76,NNW,338,0.9,2.0,62,0.00,,,0.01,WUHU216HW,2013-06-01 14:51:00,
2013-06-01 09:56:00,67.9,52.5,29.76,West,270,6.0,6.0,58,0.00,,,0.01,WUHU216HW,2013-06-01 14:56:00,
2013-06-01 10:01:00,67.7,52.8,29.76,SSW,203,1.8,6.0,59,0.00,,,0.01,WUHU216HW,2013-06-01 15:01:00,
2013-06-01 10:06:00,67.5,54.5,29.76,NNW,338,1.3,6.0,63,0.00,,,0.01,WUHU216HW,2013-06-01 15:06:00,
2013-06-01 10:11:00,68.4,54.9,29.76,WSW,248,2.0,2.0,62,0.00,,,0.01,WUHU216HW,2013-06-01 15:11:00,
2013-06-01 10:16:00,68.2,53.4,29.75,SSW,203,1.3,2.0,59,0.00,,,0.01,WUHU216HW,2013-06-01 15:16:00,
2013-06-01 10:21:00,68.2,53.4,29.75,SSW,203,1.3,2.0,59,0.00,,,0.01,WUHU216HW,2013-06-01 15:21:00,
2013-06-01 10:26:00,68.2,53.4,29.75,SSW,203,1.3,1.3,59,0.00,,,0.01,WUHU216HW,2013-06-01 15:26:00,
2013-06-01 10:47:00,68.4,54.0,29.76,WSW,248,0.9,0.9,60,0.00,,,0.01,WUHU216HW,2013-06-01 15:47:00,
2013-06-01 10:52:00,69.3,55.4,29.76,West,270,1.3,1.3,61,0.00,,,0.01,WUHU216HW,2013-06-01 15:52:00,
2013-06-01 10:57:00,68.8,53.4,29.76,NNW,338,4.0,4.0,58,0.00,,,0.01,WUHU216HW,2013-06-01 15:57:00,
2013-06-01 11:02:00,68.9,55.0,29.76,NW,315,3.6,4.0,61,0.00,,,0.01,WUHU216HW,2013-06-01 16:02:00,
2013-06-01 11:07:00,69.3,53.9,29.76,North,0,2.2,4.0,58,0.00,,,0.01,WUHU216HW,2013-06-01 16:07:00,
2013-06-01 11:12:00,69.5,53.6,29.77,NNW,338,4.7,4.7,57,0.00,,,0.01,WUHU216HW,2013-06-01 16:12:00,
2013-06-01 11:17:00,69.1,53.7,29.76,WSW,248,4.5,4.7,58,0.00,,,0.01,WUHU216HW,2013-06-01 16:17:00,
2013-06-01 11:22:00,69.7,53.7,29.77,WSW,248,5.6,5.6,57,0.00,,,0.01,WUHU216HW,2013-06-01 16:22:00,
2013-06-01 11:27:00,69.8,54.9,29.76,WSW,248,1.1,5.6,59,0.00,,,0.01,WUHU216HW,2013-06-01 16:27:00,
2013-06-01 11:32:00,70.6,56.1,29.77,SSW,203,1.6,5.6,60,0.00,,,0.01,WUHU216HW,2013-06-01 16:32:00,
2013-06-01 11:37:00,70.7,55.3,29.77,WSW,248,5.6,5.6,58,0.00,,,0.01,WUHU216HW,2013-06-01 16:37:00,
2013-06-01 11:42:00,70.2,53.7,29.76,South,180,6.7,6.7,56,0.00,,,0.01,WUHU216HW,2013-06-01 16:42:00,
2013-06-01 11:47:00,69.8,53.9,29.76,SSW,203,6.3,6.7,57,0.00,,,0.01,WUHU216HW,2013-06-01 16:47:00,
2013-06-01 11:52:00,69.8,53.5,29.76,West,270,2.9,6.7,56,0.00,,,0.01,WUHU216HW,2013-06-01 16:52:00,
2013-06-01 11:57:00,69.8,53.5,29.77,West,270,2.9,6.3,56,0.00,,,0.01,WUHU216HW,2013-06-01 16:57:00,
2013-06-01 12:02:00,70.7,54.3,29.77,SSW,203,3.4,4.7,56,0.00,,,0.01,WUHU216HW,2013-06-01 17:02:00,
2013-06-01 12:07:00,70.9,55.5,29.78,SSW,203,4.3,4.7,58,0.00,,,0.01,WUHU216HW,2013-06-01 17:07:00,
2013-06-01 12:12:00,70.4,53.4,29.78,North,0,4.3,4.3,55,0.00,,,0.01,WUHU216HW,2013-06-01 17:12:00,
2013-06-01 12:17:00,69.1,52.2,29.78,NW,315,3.4,4.3,55,0.00,,,0.01,WUHU216HW,2013-06-01 17:17:00,
2013-06-01 12:22:00,70.0,54.1,29.78,NNW,338,0.4,4.3,57,0.00,,,0.01,WUHU216HW,2013-06-01 17:22:00,
2013-06-01 12:27:00,70.9,54.9,29.78,NW,315,5.4,5.4,57,0.00,,,0.01,WUHU216HW,2013-06-01 17:27:00,
2013-06-01 12:32:00,71.3,55.3,29.78,NNW,338,1.6,5.4,57,0.00,,,0.01,WUHU216HW,2013-06-01 17:32:00,
2013-06-01 12:37:00,71.5,53.9,29.78,NNE,23,5.8,5.8,54,0.00,,,0.01,WUHU216HW,2013-06-01 17:37:00,
2013-06-01 12:42:00,71.6,54.0,29.78,SSW,203,3.4,5.8,54,0.00,,,0.01,WUHU216HW,2013-06-01 17:42:00,
2013-06-01 12:47:00,71.6,53.0,29.78,SW,225,5.8,6.0,52,0.00,,,0.01,WUHU216HW,2013-06-01 17:47:00,
2013-06-01 12:52:00,71.1,54.1,29.78,WSW,248,3.1,6.0,55,0.00,,,0.01,WUHU216HW,2013-06-01 17:52:00,
2013-06-01 12:57:00,71.3,54.2,29.78,West,270,4.0,5.8,55,0.00,,,0.01,WUHU216HW,2013-06-01 17:57:00,
2013-06-01 13:02:00,71.5,54.4,29.78,WSW,248,3.4,4.7,55,0.00,,,0.01,WUHU216HW,2013-06-01 18:02:00,
2013-06-01 13:07:00,71.6,53.6,29.78,South,180,4.9,4.9,53,0.00,,,0.01,WUHU216HW,2013-06-01 18:07:00,
2013-06-01 13:12:00,70.9,53.9,29.78,South,180,2.2,4.9,55,0.00,,,0.01,WUHU216HW,2013-06-01 18:12:00,
2013-06-01 13:17:00,71.6,55.1,29.78,NNW,338,4.5,4.9,56,0.00,,,0.01,WUHU216HW,2013-06-01 18:17:00,
2013-06-01 13:22:00,70.9,54.4,29.78,WNW,293,3.4,6.3,56,0.00,,,0.01,WUHU216HW,2013-06-01 18:22:00,
2013-06-01 13:27:00,71.6,54.0,29.78,SW,225,7.6,7.6,54,0.00,,,0.01,WUHU216HW,2013-06-01 18:27:00,
2013-06-01 13:32:00,72.5,55.4,29.78,North,0,0.4,7.8,55,0.00,,,0.01,WUHU216HW,2013-06-01 18:32:00,
2013-06-01 13:37:00,72.0,54.4,29.78,NE,45,4.9,7.8,54,0.00,,,0.01,WUHU216HW,2013-06-01 18:37:00,
2013-06-01 13:42:00,72.2,55.5,29.78,NNW,338,4.0,4.9,56,0.00,,,0.01,WUHU216HW,2013-06-01 18:42:00,
2013-06-01 13:47:00,73.1,56.3,29.78,WSW,248,2.2,4.9,56,0.00,,,0.01,WUHU216HW,2013-06-01 18:47:00,
2013-06-01 13:52:00,73.6,55.8,29.78,WSW,248,2.5,3.6,54,0.00,,,0.01,WUHU216HW,2013-06-01 18:52:00,
2013-06-01 13:57:00,72.5,54.4,29.79,WSW,248,4.9,4.9,53,0.00,,,0.01,WUHU216HW,2013-06-01 18:57:00,
2013-06-01 14:02:00,71.8,55.7,29.79,SW,225,8.5,8.5,57,0.00,,,0.01,WUHU216HW,2013-06-01 19:02:00,
2013-06-01 14:07:00,72.2,56.5,29.79,West,270,2.5,8.5,58,0.00,,,0.01,WUHU216HW,2013-06-01 19:07:00,
2013-06-01 14:12:00,72.2,56.5,29.79,West,270,2.5,2.5,58,0.00,,,0.01,WUHU216HW,2013-06-01 19:12:00,
2013-06-01 14:33:00,72.4,56.2,29.79,NW,315,3.6,3.6,57,0.00,,,0.01,WUHU216HW,2013-06-01 19:33:00,
2013-06-01 14:38:00,72.5,55.9,29.80,North,0,6.3,6.3,56,0.00,,,0.01,WUHU216HW,2013-06-01 19:38:00,
2013-06-01 14:43:00,71.6,55.5,29.80,WSW,248,2.5,6.3,57,0.00,,,0.01,WUHU216HW,2013-06-01 19:43:00,
2013-06-01 14:48:00,71.5,56.4,29.80,NNW,338,2.9,6.3,59,0.00,,,0.01,WUHU216HW,2013-06-01 19:48:00,
2013-06-01 14:53:00,71.5,56.4,29.80,NNW,338,2.9,2.9,59,0.00,,,0.01,WUHU216HW,2013-06-01 19:53:00,
2013-06-01 14:58:00,71.5,56.4,29.80,NNW,338,2.9,2.9,59,0.00,,,0.01,WUHU216HW,2013-06-01 19:58:00,
2013-06-01 15:03:00,71.1,56.1,29.81,NNW,338,5.1,5.1,59,0.00,,,0.01,WUHU216HW,2013-06-01 20:03:00,
2013-06-01 15:08:00,70.7,56.3,29.81,NNW,338,2.5,5.1,60,0.00,,,0.01,WUHU216HW,2013-06-01 20:08:00,
2013-06-01 15:13:00,70.9,55.9,29.81,NNW,338,6.3,6.3,59,0.00,,,0.01,WUHU216HW,2013-06-01 20:13:00,
2013-06-01 15:18:00,70.7,56.3,29.81,NNW,338,6.9,6.9,60,0.00,,,0.01,WUHU216HW,2013-06-01 20:18:00,
2013-06-01 15:23:00,70.4,55.9,29.81,WSW,248,1.8,6.9,60,0.00,,,0.01,WUHU216HW,2013-06-01 20:23:00,
2013-06-01 15:28:00,70.2,56.6,29.81,WSW,248,3.8,4.0,62,0.00,,,0.01,WUHU216HW,2013-06-01 20:28:00,
2013-06-01 15:33:00,70.2,56.6,29.81,WSW,248,3.8,3.8,62,0.00,,,0.01,WUHU216HW,2013-06-01 20:33:00,
2013-06-01 15:38:00,70.2,56.6,29.81,WSW,248,3.8,3.8,62,0.00,,,0.01,WUHU216HW,2013-06-01 20:38:00,
2013-06-01 15:58:00,70.6,57.3,29.82,SW,225,1.6,1.6,63,0.00,,,0.01,WUHU216HW,2013-06-01 20:58:00,
2013-06-01 16:03:00,70.7,57.5,29.81,WSW,248,3.4,3.4,63,0.00,,,0.01,WUHU216HW,2013-06-01 21:03:00,
2013-06-01 16:08:00,69.7,56.5,29.82,North,0,2.5,3.4,63,0.00,,,0.01,WUHU216HW,2013-06-01 21:08:00,
2013-06-01 16:13:00,69.5,57.2,29.82,SSE,158,3.4,3.4,65,0.00,,,0.01,WUHU216HW,2013-06-01 21:13:00,
2013-06-01 16:18:00,69.8,57.1,29.82,South,180,3.6,3.6,64,0.00,,,0.01,WUHU216HW,2013-06-01 21:18:00,
2013-06-01 16:23:00,70.6,57.8,29.82,South,180,1.3,3.6,64,0.00,,,0.01,WUHU216HW,2013-06-01 21:23:00,
2013-06-01 16:28:00,70.7,57.1,29.82,NW,315,6.9,6.9,62,0.00,,,0.01,WUHU216HW,2013-06-01 21:28:00,
2013-06-01 16:33:00,71.3,58.4,29.83,WSW,248,3.1,6.9,64,0.00,,,0.01,WUHU216HW,2013-06-01 21:33:00,
2013-06-01 16:38:00,71.3,57.6,29.82,NNW,338,3.4,6.9,62,0.00,,,0.01,WUHU216HW,2013-06-01 21:38:00,
2013-06-01 16:43:00,71.1,57.9,29.83,NNE,23,2.7,3.4,63,0.00,,,0.01,WUHU216HW,2013-06-01 21:43:00,
2013-06-01 16:48:00,71.6,58.0,29.83,West,270,2.7,3.4,62,0.00,,,0.01,WUHU216HW,2013-06-01 21:48:00,
2013-06-01 16:53:00,71.1,57.9,29.83,SSW,203,2.9,2.9,63,0.00,,,0.01,WUHU216HW,2013-06-01 21:53:00,
2013-06-01 16:58:00,70.6,57.3,29.83,SSW,203,5.6,5.6,63,0.00,,,0.01,WUHU216HW,2013-06-01 21:58:00,
2013-06-01 17:03:00,69.1,56.8,29.83,West,270,2.7,5.6,65,0.00,,,0.01,WUHU216HW,2013-06-01 22:03:00,
2013-06-01 17:08:00,69.1,56.8,29.83,NW,315,5.4,5.6,65,0.00,,,0.01,WUHU216HW,2013-06-01 22:08:00,
2013-06-01 17:13:00,68.9,56.7,29.83,SW,225,1.8,5.4,65,0.00,,,0.01,WUHU216HW,2013-06-01 22:13:00,
2013-06-01 17:18:00,69.7,57.8,29.83,North,0,2.5,5.4,66,0.00,,,0.01,WUHU216HW,2013-06-01 22:18:00,
2013-06-01 17:23:00,69.8,57.5,29.83,NW,315,1.8,4.0,65,0.00,,,0.01,WUHU216HW,2013-06-01 22:23:00,
2013-06-01 17:28:00,69.5,57.2,29.83,NW,315,2.5,2.5,65,0.00,,,0.01,WUHU216HW,2013-06-01 22:28:00,
2013-06-01 17:33:00,69.5,57.6,29.83,North,0,5.8,5.8,66,0.00,,,0.01,WUHU216HW,2013-06-01 22:33:00,
2013-06-01 17:38:00,69.5,57.6,29.83,NW,315,2.2,5.8,66,0.00,,,0.01,WUHU216HW,2013-06-01 22:38:00,
2013-06-01 17:43:00,69.7,57.3,29.83,WSW,248,3.4,5.8,65,0.00,,,0.01,WUHU216HW,2013-06-01 22:43:00,
2013-06-01 17:48:00,70.0,58.2,29.83,NW,315,1.8,3.4,66,0.00,,,0.01,WUHU216HW,2013-06-01 22:48:00,
2013-06-01 17:53:00,71.1,57.9,29.83,SW,225,1.8,1.8,63,0.00,,,0.01,WUHU216HW,2013-06-01 22:53:00,
2013-06-01 17:58:00,70.6,58.2,29.83,NNW,338,4.5,4.5,65,0.00,,,0.01,WUHU216HW,2013-06-01 22:58:00,
2013-06-01 18:03:00,69.8,57.5,29.83,SSW,203,2.0,4.5,65,0.00,,,0.01,WUHU216HW,2013-06-01 23:03:00,
2013-06-01 18:08:00,69.1,57.2,29.83,North,0,1.6,4.5,66,0.00,,,0.01,WUHU216HW,2013-06-01 23:08:00,
2013-06-01 18:13:00,68.6,57.2,29.84,NNW,338,2.2,2.2,67,0.00,,,0.01,WUHU216HW,2013-06-01 23:13:00,
2013-06-01 18:18:00,68.0,57.5,29.84,NNE,23,2.5,2.5,69,0.00,,,0.01,WUHU216HW,2013-06-01 23:18:00,
2013-06-01 18:23:00,67.9,57.3,29.84,NW,315,0.4,2.5,69,0.00,,,0.01,WUHU216HW,2013-06-01 23:23:00,
2013-06-01 18:28:00,67.5,57.0,29.84,WNW,293,5.6,5.6,69,0.00,,,0.01,WUHU216HW,2013-06-01 23:28:00,
2013-06-01 18:33:00,67.1,57.1,29.84,NW,315,4.9,5.6,70,0.00,,,0.01,WUHU216HW,2013-06-01 23:33:00,
2013-06-01 18:38:00,67.0,56.9,29.84,NW,315,0.7,5.6,70,0.00,,,0.01,WUHU216HW,2013-06-01 23:38:00,
2013-06-01 18:43:00,66.8,56.7,29.84,SW,225,1.8,4.9,70,0.00,,,0.01,WUHU216HW,2013-06-01 23:43:00,
2013-06-01 18:48:00,66.8,57.1,29.84,North,0,3.6,3.6,71,0.00,,,0.01,WUHU216HW,2013-06-01 23:48:00,
2013-06-01 18:53:00,67.0,57.2,29.84,NE,45,4.0,4.0,71,0.00,,,0.01,WUHU216HW,2013-06-01 23:53:00,
2013-06-01 18:58:00,66.4,56.7,29.85,NNW,338,3.6,4.9,71,0.00,,,0.01,WUHU216HW,2013-06-01 23:58:00,
2013-06-01 19:03:00,66.2,56.5,29.85,NNE,23,4.3,4.9,71,0.00,,,0.01,WUHU216HW,2013-06-02 00:03:00,
2013-06-01 19:08:00,66.1,56.8,29.85,North,0,3.4,4.3,72,0.00,,,0.01,WUHU216HW,2013-06-02 00:08:00,
2013-06-01 19:13:00,66.1,56.8,29.85,North,0,2.5,4.3,72,0.00,,,0.01,WUHU216HW,2013-06-02 00:13:00,
2013-06-01 19:18:00,66.2,56.9,29.85,WNW,293,1.3,3.4,72,0.00,,,0.01,WUHU216HW,2013-06-02 00:18:00,
2013-06-01 19:23:00,66.2,56.9,29.86,NNE,23,2.5,2.5,72,0.00,,,0.01,WUHU216HW,2013-06-02 00:23:00,
2013-06-01 19:28:00,66.2,56.9,29.86,NNE,23,2.5,2.5,72,0.00,,,0.01,WUHU216HW,2013-06-02 00:28:00,
2013-06-01 19:33:00,66.2,56.9,29.86,NNE,23,2.5,2.5,72,0.00,,,0.01,WUHU216HW,2013-06-02 00:33:00,
2013-06-01 19:54:00,65.2,55.2,29.86,NNW,338,3.4,3.4,70,0.00,,,0.01,WUHU216HW,2013-06-02 00:54:00,
2013-06-01 19:59:00,65.0,55.4,29.87,WSW,248,4.7,4.7,71,0.00,,,0.01,WUHU216HW,2013-06-02 00:59:00,
2013-06-01 20:04:00,64.6,55.1,29.87,North,0,4.3,4.7,71,0.00,,,0.01,WUHU216HW,2013-06-02 01:04:00,
2013-06-01 20:09:00,64.4,55.3,29.87,North,0,2.7,4.7,72,0.00,,,0.01,WUHU216HW,2013-06-02 01:09:00,
2013-06-01 20:14:00,63.9,55.1,29.87,NNW,338,3.1,4.3,73,0.00,,,0.01,WUHU216HW,2013-06-02 01:14:00,
2013-06-01 20:19:00,63.7,54.9,29.87,WSW,248,3.1,3.1,73,0.00,,,0.01,WUHU216HW,2013-06-02 01:19:00,
2013-06-01 20:24:00,63.5,54.7,29.87,NNW,338,2.0,3.1,73,0.00,,,0.01,WUHU216HW,2013-06-02 01:24:00,
2013-06-01 20:29:00,63.4,54.5,29.87,North,0,3.6,3.6,73,0.00,,,0.01,WUHU216HW,2013-06-02 01:29:00,
2013-06-01 20:34:00,63.0,54.5,29.86,North,0,5.6,5.6,74,0.00,,,0.01,WUHU216HW,2013-06-02 01:34:00,
2013-06-01 20:39:00,62.6,53.8,29.87,NW,315,2.2,5.6,73,0.00,,,0.01,WUHU216HW,2013-06-02 01:39:00,
2013-06-01 20:44:00,62.3,53.5,29.87,SE,135,1.6,5.6,73,0.00,,,0.01,WUHU216HW,2013-06-02 01:44:00,
2013-06-01 20:49:00,62.1,53.7,29.87,NNE,23,0.4,2.2,74,0.00,,,0.01,WUHU216HW,2013-06-02 01:49:00,
2013-06-01 20:54:00,61.9,53.9,29.87,North,0,1.8,1.8,75,0.00,,,0.01,WUHU216HW,2013-06-02 01:54:00,
2013-06-01 20:59:00,61.6,53.6,29.87,NNW,338,0.4,1.8,75,0.00,,,0.01,WUHU216HW,2013-06-02 01:59:00,
2013-06-01 21:04:00,61.4,53.7,29.87,North,0,1.1,1.1,76,0.00,,,0.01,WUHU216HW,2013-06-02 02:04:00,
2013-06-01 21:09:00,61.2,53.7,29.88,NW,315,1.3,1.3,76,0.00,,,0.01,WUHU216HW,2013-06-02 02:09:00,
2013-06-01 21:14:00,60.8,53.6,29.88,NW,315,0.0,1.3,77,0.00,,,0.01,WUHU216HW,2013-06-02 02:14:00,
2013-06-01 21:19:00,60.7,53.5,29.88,NNW,338,2.7,2.7,77,0.00,,,0.01,WUHU216HW,2013-06-02 02:19:00,
2013-06-01 21:24:00,60.5,53.6,29.88,North,0,1.6,2.7,78,0.00,,,0.01,WUHU216HW,2013-06-02 02:24:00,
2013-06-01 21:29:00,60.7,53.8,29.88,NNW,338,2.9,2.9,78,0.00,,,0.01,WUHU216HW,2013-06-02 02:29:00,
2013-06-01 21:34:00,60.5,53.6,29.89,NNW,338,1.1,2.9,78,0.00,,,0.01,WUHU216HW,2013-06-02 02:34:00,
2013-06-01 21:39:00,60.5,53.6,29.89,NNW,338,0.4,2.9,78,0.00,,,0.01,WUHU216HW,2013-06-02 02:39:00,
2013-06-01 21:44:00,60.3,53.8,29.89,North,0,0.7,1.8,79,0.00,,,0.01,WUHU216HW,2013-06-02 02:44:00,
2013-06-01 21:49:00,60.5,54.0,29.89,North,0,0.7,1.8,79,0.00,,,0.01,WUHU216HW,2013-06-02 02:49:00,
2013-06-01 21:54:00,60.5,54.0,29.89,North,0,2.0,2.0,79,0.00,,,0.01,WUHU216HW,2013-06-02 02:54:00,
2013-06-01 21:59:00,60.5,54.0,29.89,North,0,0.4,2.0,79,0.00,,,0.01,WUHU216HW,2013-06-02 02:59:00,
2013-06-01 22:04:00,60.1,53.6,29.89,NNW,338,2.7,2.7,79,0.00,,,0.01,WUHU216HW,2013-06-02 03:04:00,
2013-06-01 22:09:00,60.1,53.6,29.89,North,0,1.8,2.7,79,0.00,,,0.01,WUHU216HW,2013-06-02 03:09:00,
2013-06-01 22:14:00,60.1,53.6,29.89,NW,315,1.1,2.7,79,0.00,,,0.01,WUHU216HW,2013-06-02 03:14:00,
2013-06-01 22:19:00,60.1,53.6,29.90,NNW,338,1.1,1.8,79,0.00,,,0.01,WUHU216HW,2013-06-02 03:19:00,
2013-06-01 22:24:00,60.1,54.0,29.90,NNW,338,1.8,1.8,80,0.00,,,0.01,WUHU216HW,2013-06-02 03:24:00,
2013-06-01 22:29:00,59.9,53.8,29.90,NW,315,3.6,3.6,80,0.00,,,0.01,WUHU216HW,2013-06-02 03:29:00,
2013-06-01 22:34:00,59.8,53.6,29.90,NW,315,1.8,3.6,80,0.00,,,0.01,WUHU216HW,2013-06-02 03:34:00,
2013-06-01 22:39:00,59.8,53.6,29.90,NNW,338,1.1,3.6,80,0.00,,,0.01,WUHU216HW,2013-06-02 03:39:00,
2013-06-01 22:44:00,59.6,53.5,29.91,NW,315,0.4,1.8,80,0.00,,,0.01,WUHU216HW,2013-06-02 03:44:00,
2013-06-01 22:49:00,59.4,53.7,29.91,North,0,0.7,0.7,81,0.00,,,0.01,WUHU216HW,2013-06-02 03:49:00,
2013-06-01 22:54:00,59.0,53.3,29.91,NW,315,0.2,0.7,81,0.00,,,0.01,WUHU216HW,2013-06-02 03:54:00,
2013-06-01 22:59:00,58.7,53.2,29.92,NW,315,0.0,0.9,82,0.00,,,0.01,WUHU216HW,2013-06-02 03:59:00,
2013-06-01 23:01:00,58.7,53.2,29.91,NW,315,0.0,0.9,82,0.00,,,0.01,WUHU216HW,2013-06-02 04:01:00,
2013-06-01 23:06:00,58.3,52.8,29.91,NW,315,0.0,0.9,82,0.00,,,0.01,WUHU216HW,2013-06-02 04:06:00,
2013-06-01 23:11:00,58.0,53.1,29.91,NW,315,1.1,1.1,84,0.00,,,0.01,WUHU216HW,2013-06-02 04:11:00,
2013-06-01 23:16:00,58.1,53.3,29.91,NNW,338,1.1,1.1,84,0.00,,,0.01,WUHU216HW,2013-06-02 04:16:00,
2013-06-01 23:21:00,58.5,53.4,29.91,NW,315,0.4,1.1,83,0.00,,,0.01,WUHU216HW,2013-06-02 04:21:00,
2013-06-01 23:26:00,58.7,53.6,29.91,WNW,293,0.4,1.1,83,0.00,,,0.01,WUHU216HW,2013-06-02 04:26:00,
2013-06-01 23:31:00,58.7,53.6,29.92,NW,315,3.1,3.1,83,0.00,,,0.01,WUHU216HW,2013-06-02 04:31:00,
2013-06-01 23:36:00,59.0,53.9,29.92,North,0,0.4,3.1,83,0.00,,,0.01,WUHU216HW,2013-06-02 04:36:00,
2013-06-01 23:41:00,58.5,53.4,29.92,WNW,293,0.0,3.1,83,0.00,,,0.01,WUHU216HW,2013-06-02 04:41:00,
2013-06-01 23:46:00,58.1,53.0,29.92,NNW,338,0.0,0.9,83,0.00,,,0.01,WUHU216HW,2013-06-02 04:46:00,
2013-06-01 23:51:00,58.0,53.1,29.92,NNW,338,0.4,0.4,84,0.00,,,0.01,WUHU216HW,2013-06-02 04:51:00,
2013-06-01 23:56:00,58.0,53.1,29.92,NNW,338,1.8,1.8,84,0.00,,,0.01,WUHU216HW,2013-06-02 04:56:00,